Location: Newark
(51.2625°N, 13.3939°E)
Time: 05:09:44
(UTC+00:00)

deb Explorer IX - Pass Details

Date: 18 November 2019
Orbit: 546 x 1104 km, 38.8° (Epoch: 11 December)

Event Time Altitude Azimuth Distance (km) Brightness Sun altitude
Rises 00:49:34 0° 220° (SW) 3,614 - -50.3°
Reaches altitude 10° 00:53:16 10° 202° (SSW) 2,555 - -49.9°
Maximum altitude 00:56:57 17° 164° (SSE) 1,995 - -49.5°
Drops below altitude 10° 01:00:20 10° 126° (SE) 2,312 - -49.1°
Sets 01:03:27 0° 105° (ESE) 3,124 - -48.7°
